sat.trackr.live / text

‹ back to catalog

2025-197B

NORAD 65489 · 2025-197B

PAYLOAD ACTIVE UNKNOWN

§ Identity

Operator
Country
PRC
Launch date
2025-09-05
Launch site
JSC
Launch vehicle
Mass (kg)
RCS (m²)

External: N2YO · Heavens-Above · Gunter

§ Orbital elements

Epoch: 2026-05-25T02:12:27.074592Z

Period
94.76 min
Inclination
97.4046°
Eccentricity
0.0014728
Mean motion
15.19610688 rev/d
Perigee alt
496.9 km
Apogee alt
517.2 km
Semi-major
6,885.2 km
B*
2.5826e-4
RAAN
331.8317°
Arg perigee
93.9166°
Mean anomaly
266.3753°
Rev number
3,977

§ Raw data

2025-197B1 65489U 25197B   26145.09198003  .00005448  00000+0  25826-3 0  99902 65489  97.4046 331.8317 0014728  93.9166 266.3753 15.19610688 39779

JSON: /api/v1/satellites/65489 · /tle

For live sub-satellite position, see the globe view (requires WebGL).

§ Visibility from observer

Set your observer location to see the next 7 days of passes ≥ 10°. The values pass through the URL so the page stays shareable.

No JS? Fill the form by hand. The geolocation button needs JavaScript.

§ Radio — SatNOGS DB

ModeDescriptionDownlinkUplink
FM Telemetry 401.100 MHz

1 transmitter · refreshed weekly from db.satnogs.org